| time (UTC) | temp F | wind direction | speed MPH | gust MPH | rain 1hr in | rain 24hr in | rain mn in | humidity % | barometer mb |
| 20260502211553 | 76 | 102 | 0.0 | 2.0 | 0.00 | 0.24 | 0.00 | 44 | 1020.1 |
| 20260502210042 | 75 | 115 | 0.0 | 2.0 | 0.00 | 0.24 | 0.00 | 44 | 1020.4 |
| 20260502204544 | 75 | 0 | 0.0 | 2.0 | 0.00 | 0.27 | 0.00 | 49 | 1020.7 |
| 20260502203056 | 75 | 99 | 0.0 | 3.0 | 0.00 | 0.27 | 0.00 | 47 | 1020.6 |
| 20260502201543 | 74 | 0 | 0.0 | 2.0 | 0.00 | 0.27 | 0.00 | 48 | 1021.0 |
| 20260502200042 | 74 | 233 | 0.0 | 2.0 | 0.00 | 0.27 | 0.00 | 51 | 1021.1 |
| 20260502194538 | 74 | 104 | 0.0 | 2.0 | 0.00 | 0.32 | 0.00 | 49 | 1021.2 |
| 20260502193048 | 73 | 98 | 0.0 | 4.0 | 0.00 | 0.32 | 0.00 | 52 | 1021.3 |
| 20260502191548 | 73 | 0 | 0.0 | 3.0 | 0.00 | 0.32 | 0.00 | 54 | 1021.2 |
| 20260502190045 | 72 | 0 | 1.0 | 2.0 | 0.00 | 0.32 | 0.00 | 51 | 1021.3 |
| 20260502184554 | 72 | 353 | 0.0 | 2.0 | 0.00 | 0.52 | 0.00 | 53 | 1021.4 |
| 20260502183058 | 72 | 271 | 0.0 | 1.0 | 0.00 | 0.52 | 0.00 | 54 | 1021.4 |
| 20260502181548 | 71 | 258 | 0.0 | 5.0 | 0.00 | 0.52 | 0.00 | 55 | 1021.6 |
| 20260502163053 | 69 | 0 | 0.0 | 3.0 | 0.00 | 0.57 | 0.00 | 62 | 1022.9 |
| 20260502161542 | 68 | 94 | 0.0 | 3.0 | 0.00 | 0.57 | 0.00 | 63 | 1022.9 |
| 20260502151548 | 62 | 0 | 0.0 | 1.0 | 0.00 | 0.65 | 0.00 | 72 | 1022.9 |
| 20260502123048 | 50 | 0 | 0.0 | 0.0 | 0.00 | 1.01 | 0.00 | 94 | 1020.9 |
| 20260502121546 | 50 | 0 | 0.0 | 0.0 | 0.00 | 1.01 | 0.00 | 94 | 1020.7 |
| 20260502114558 | 50 | 0 | 0.0 | 0.0 | 0.00 | 1.19 | 0.00 | 94 | 1020.4 |
| 20260502113044 | 50 | 0 | 0.0 | 0.0 | 0.00 | 1.19 | 0.00 | 94 | 1020.3 |
| 20260502111554 | 50 | 0 | 0.0 | 0.0 | 0.00 | 1.19 | 0.00 | 93 | 1020.3 |
| 20260502110050 | 50 | 0 | 0.0 | 0.0 | 0.00 | 1.19 | 0.00 | 93 | 1020.2 |
| 20260502104551 | 50 | 0 | 0.0 | 0.0 | 0.00 | 1.39 | 0.00 | 93 | 1019.9 |
| 20260502103050 | 51 | 0 | 0.0 | 0.0 | 0.00 | 1.39 | 0.00 | 92 | 1019.6 |
| 20260502101615 | 51 | 0 | 0.0 | 0.0 | 0.00 | 1.39 | 0.00 | 92 | 1019.3 |
| 20260502090104 | 52 | 0 | 0.0 | 0.0 | 0.00 | 1.55 | 0.00 | 91 | 1018.4 |
| 20260502070054 | 52 | 0 | 0.0 | 0.0 | 0.00 | 1.69 | 0.00 | 92 | 1017.9 |
| 20260502064537 | 52 | 0 | 0.0 | 1.0 | 0.00 | 1.71 | 0.00 | 92 | 1018.0 |
| 20260502063050 | 53 | 0 | 0.0 | 0.0 | 0.00 | 1.71 | 0.00 | 92 | 1018.2 |
| 20260502061544 | 53 | 0 | 0.0 | 1.0 | 0.00 | 1.71 | 0.00 | 92 | 1018.4 |
| 20260502060041 | 53 | 0 | 0.0 | 1.0 | 0.00 | 1.71 | 0.00 | 92 | 1018.3 |
| 20260502054541 | 53 | 0 | 0.0 | 0.0 | 0.00 | 1.71 | 0.00 | 93 | 1018.4 |
| 20260502053038 | 53 | 0 | 0.0 | 0.0 | 0.00 | 1.71 | 0.00 | 93 | 1018.2 |
| 20260502051603 | 53 | 0 | 0.0 | 0.0 | 0.00 | 1.71 | 0.00 | 93 | 1018.3 |
| 20260502050047 | 53 | 0 | 0.0 | 0.0 | 0.00 | 1.71 | 0.00 | 92 | 1018.0 |
| 20260502044548 | 54 | 0 | 0.0 | 0.0 | 0.00 | 1.71 | 1.71 | 91 | 1018.2 |
| 20260502043052 | 54 | 0 | 0.0 | 1.0 | 0.00 | 1.71 | 1.71 | 91 | 1018.2 |
| 20260502041548 | 54 | 0 | 0.0 | 1.0 | 0.00 | 1.71 | 1.71 | 90 | 1018.1 |
| 20260502040057 | 54 | 0 | 0.0 | 1.0 | 0.00 | 1.71 | 1.71 | 90 | 1018.1 |
| 20260502034544 | 54 | 0 | 0.0 | 1.0 | 0.00 | 1.71 | 1.71 | 90 | 1018.2 |
| 20260502033049 | 54 | 0 | 0.0 | 2.0 | 0.00 | 1.71 | 1.71 | 90 | 1018.1 |
| 20260502031540 | 54 | 0 | 0.0 | 2.0 | 0.00 | 1.71 | 1.71 | 91 | 1017.8 |
| 20260502030050 | 54 | 0 | 0.0 | 3.0 | 0.00 | 1.71 | 1.71 | 91 | 1017.8 |
| 20260502024546 | 54 | 0 | 0.0 | 1.0 | 0.00 | 1.71 | 1.71 | 91 | 1017.7 |
| 20260502023058 | 54 | 0 | 0.0 | 1.0 | 0.00 | 1.71 | 1.71 | 92 | 1017.1 |
| 20260502021542 | 54 | 0 | 0.0 | 1.0 | 0.00 | 1.71 | 1.71 | 92 | 1016.8 |
| 20260502020058 | 54 | 0 | 0.0 | 2.0 | 0.00 | 1.71 | 1.71 | 92 | 1016.8 |
| 20260502014539 | 54 | 0 | 0.0 | 1.0 | 0.00 | 1.71 | 1.71 | 93 | 1016.5 |
| 20260502013053 | 54 | 0 | 0.0 | 1.0 | 0.00 | 1.71 | 1.71 | 94 | 1016.1 |
| 20260502011543 | 54 | 355 | 0.0 | 1.0 | 0.00 | 1.71 | 1.71 | 94 | 1015.9 |
| 20260502010043 | 54 | 267 | 0.0 | 3.0 | 0.00 | 1.71 | 1.71 | 94 | 1015.7 |
| 20260502004539 | 55 | 205 | 0.0 | 2.0 | 0.00 | 1.71 | 1.71 | 94 | 1015.5 |
| 20260502003045 | 55 | 0 | 0.0 | 2.0 | 0.00 | 1.71 | 1.71 | 95 | 1015.1 |
| 20260502001604 | 55 | 273 | 0.0 | 2.0 | 0.00 | 1.71 | 1.71 | 94 | 1014.8 |
| 20260502000051 | 55 | 270 | 0.0 | 3.0 | 0.01 | 1.71 | 1.71 | 94 | 1013.9 |
| 20260501234550 | 55 | 111 | 0.0 | 2.0 | 0.01 | 1.71 | 1.71 | 94 | 1014.2 |
| 20260501233053 | 56 | 0 | 0.0 | 2.0 | 0.02 | 1.71 | 1.71 | 94 | 1014.7 |
| 20260501231539 | 56 | 0 | 0.0 | 3.0 | 0.05 | 1.71 | 1.71 | 94 | 1014.3 |
| 20260501230039 | 56 | 0 | 0.0 | 4.0 | 0.09 | 1.70 | 1.70 | 95 | 1013.9 |
| 20260501224547 | 57 | 117 | 0.0 | 3.0 | 0.11 | 1.70 | 1.70 | 95 | 1013.8 |
| 20260501223045 | 57 | 269 | 0.0 | 3.0 | 0.15 | 1.69 | 1.69 | 95 | 1013.9 |
| 20260501221542 | 57 | 186 | 1.0 | 4.0 | 0.15 | 1.66 | 1.66 | 95 | 1013.3 |
| 20260501220111 | 57 | 0 | 0.0 | 4.0 | 0.14 | 1.61 | 1.61 | 95 | 1013.5 |
| 20260501214548 | 57 | 0 | 0.0 | 2.0 | 0.13 | 1.59 | 1.59 | 95 | 1013.7 |
| 20260501213058 | 57 | 263 | 0.0 | 3.0 | 0.08 | 1.54 | 1.54 | 95 | 1013.0 |